Regional Weather Roundup
Issued by NWS

Home | Current Version | Previous Version | Text Only | Print | Product List | Glossary On
Versions: 1 2 3 4 5 6 7 8 9 10 11 12 13 14 15 16 17 18 19 20 21 22 23 24 25 26 27 28 29 30 31 32 33 34 35 36 37 38 39 40 41 42 43 44 45 46 47 48 49 50
000
ASUS43 KTOP 291259
RWRKS

WEATHER ROUNDUP FOR KANSAS
NATIONAL WEATHER SERVICE GOODLAND KS
800 AM CDT MON MAY 29 2017

NOTE:  "FAIR" INDICATES FEW OR NO CLOUDS BELOW 12,000 FEET WITH NO
SIGNIFICANT WEATHER AND/OR OBSTRUCTIONS TO VISIBILITY.

KSZ001>006-013>018-027>032-041>047-291400-
NORTHWEST KANSAS

CITY           SKY/WX    TMP DP  RH WIND       PRES   REMARKS
GOODLAND       SUNNY     54  47  77 NW13      30.17R
HAYS           SUNNY     60  50  69 NW9       30.08S
HILL CITY      SUNNY     57  51  80 SW3       30.12R
RUSSELL        SUNNY     59  51  75 NW10      30.06R
$$

KSZ061>065-074>080-084>089-291400-
SOUTHWEST KANSAS

CITY           SKY/WX    TMP DP  RH WIND       PRES   REMARKS
DODGE CITY     SUNNY     57  47  69 NW8       30.13R
ELKHART          N/A     55  41  59 MISG        N/A
GARDEN CITY    MOSUNNY   58  47  66 N10       30.14R
GREAT BEND     MOSUNNY   60  52  74 NW5       30.08R
LIBERAL        CLOUDY    56  49  77 NW9       30.17R
$$

KSZ066>073-081>083-090>101-291400-
SOUTHEAST KANSAS

CITY           SKY/WX    TMP DP  RH WIND       PRES   REMARKS
CHANUTE        SUNNY     65  53  65 MISG      30.01R
COFFEYVILLE    SUNNY     63  59  87 CALM      30.00R
HUTCHINSON     SUNNY     62  51  67 NW7       30.05R
MEDICINE LODGE   N/A     59  49  69 W3        30.06R
NEWTON         SUNNY     64  52  64 NW5       30.04R
PARSONS        SUNNY     63  57  81 SW3       30.01R
WICHITA INTL   MOSUNNY   64  50  60 W3        30.04R
WICHITA JABRA  SUNNY     66  48  52 W3        30.03R
WINFIELD       SUNNY     63  54  72 NW6       30.06R
$$

KSZ007>012-019>026-033>040-048>060-102>105-291400-
NORTHEAST KANSAS

CITY           SKY/WX    TMP DP  RH WIND       PRES   REMARKS
CONCORDIA      SUNNY     58  51  78 NW9       30.03S
EMPORIA        SUNNY     64  53  67 NW8       30.00R
LAWRENCE       SUNNY     63  56  78 W8        29.96S
MANHATTAN      SUNNY     63  53  70 CALM      30.01R
OLATHE IND     SUNNY     65  53  65 W9        29.96S
OLATHE EXE     SUNNY     65  53  65 W9        29.96R
SALINA         SUNNY     63  53  70 NW10      30.03R
TOPEKA BILLARD SUNNY     63  55  75 W10       29.97R
TOPEKA FORBES  SUNNY     66  53  63 NW15      29.97R
$$




USA.gov is the U.S. government's official web portal to all federal, state and local government web resources and services.